SCP
0 0 0 0 0 0 0 0 0 0 0 0 0 0 0 0 0 0 0 0 0 0 0 0 0 0 0 0 0 0 0 0 0 0 0 0 0 0
0 0 0 0 0 0 0 0 0 0 0 0 0 0 0 0 0 0 0 0 0 0 0 0 0 0 0 0 0 0 0 0 0 0 0 0 0 0
0 0 0 0 0 0 0 0 0 0 0 0 0 0 0 0 0 0 0 0 0 0 0 0 0 0 0 0 0 0 0 0 0 0 0 0 0 0
0 0 0 0 0 0 0 0 0 0 0 0 0 0 0 0 0 0 0 0 0 0 0 0 0 0 0 0 0 0 0 0 0 0 0 0 0 0
0 0 0 0 0 0 0 0 0 0 0 0 0 0 0 0 0 0 0 0 0 0 0 0 0 0 0 0 0 0 0 0 0 0 0 0 0 0
0 0 0 0 0 0 0 0 0 0 0 0 0 0 0 0 0 0 0 0 0 0 0 0 0 0 0 0 0 0 0 0 0 0 0 0 0 0
0 0 0 0 0 0 0 0 0 0 0 0 0 0 0 0 0 0 0 0 0 0 0 0 0 0 0 0 0 0 0 0 0 0 0 0 0 0
0 0 0 0 0 0 0 0 0 0 0 0 0 0 0 0 0 0 0 0 0 0 0 0 0 0 0 0 0 0 0 0 0 0 0 0 0 0
0 0 0 0 0 0 0 0 0 0 0 0 0 0 0 0 0 0 0 0 0 0 0 0 0 0 0 0 0 0 0 0 0 0 0 0 0 0
0 0 0 0 0 0 0 0 0 0 0 0 0 0 0 0 0 0 0 0 0 0 0 0 0 0 0 0 0 0 0 0 0 0 0 0 0 0
0 0 0 0 0 0 0 0 0 0 0 0 0 0 0 0 0 0 0 0 0 0 0 0 0 0 0 0 0 0 0 0 0 0 0 0 0 0
0 0 0 0 0 0 0 0 0 0 0 0 0 0 0 0 0 0 0 0 0 0 0 0 0 0 0 0 0 0 0 0 0 0 0 0 0 0
0 0 0 0 0 0 0 0 0 0 0 0 0 0 0 0 0 0 0 0 0 0 0 0 0 0 0 0 0 0 0 0 0 0 0 0 0 0
0 0 0 0 0 0 0 0 0 0 0 0 0 0 0 0 0 0 0 0 0 0 0 0 0 0 0 0 0 0 0 0 0 0 0 0 0 0
0 0 0 0 0 0 0 0 0 0 0 0 0 0 0 0 0 0 0 0 0 0 0 0 0 0 0 0 0 0 0 0 0 0 0 0 0 0
0 0 0 0 0 0 0 0 0 0 0 0 0 0 0 0 0 0 0 0 0 0 0 0 0 0 0 0 0 0 0 0 0 0 0 0 0 0
0 0 0 0 0 0 0 0 0 0 0 0 0 0 0 0 0 0 0 0 0 0 0 0 0 0 0 0 0 0 0 0 0 0 0 0 0 0
0 0 0 0 0 0 0 0 0 0 0 0 0 0 0 0 0 0 0 0 0 0 0 0 0 0 0 0 0 0 0 0 0 0 0 0 0 0
0 0 0 0 0 0 0 0 0 0 0 0 0 0 0 0 0 0 0 0 0 0 0 0 0 0 0 0 0 0 0 0 0 0 0 0 0 0
0 0 0 0 0 0 0 0 0 0 0 0 0 0 0 0 0 0 0 0 0 0 0 0 0 0 0 0 0 0 0 0 0 0 0 0 0 0
0 0 0 0 0 0 0 0 0 0 0 0 0 0 0 0 0 0 0 0 0 0 0 0 0 0 0 0 0 0 0 0 0 0 0 0 0 0
0 0 0 0 0 0 0 0 0 0 0 0 0 0 0 0 0 0 0 0 0 0 0 0 0 0 0 0 0 0 0 0 0 0 0 0 0 0
0 0 0 0 0 0 0 0 0 0 0 0 0 0 0 0 0 0 0 0 0 0 0 0 0 0 0 0 0 0 0 0 0 0 0 0 0 0
Wind_Speed
2 2 2 1 1 1 2 2 3 2 1 2 2 2 2 1 3 2 2 3 4 5 6 6 7 6 6 7 7 7 7 7 7 7 7 8 8 9
1 2 2 1 2 2 2 2 2 3 1 1 1 1 2 2 3 2 2 4 4 4 5 5 5 6 6 6 6 6 6 6 6 6 7 7 7 8
2 2 2 2 2 1 2 2 2 2 2 1 1 1 1 2 2 2 2 2 2 3 3 4 4 5 5 5 5 6 6 6 5 5 6 6 6 7
2 2 1 2 2 1 2 2 1 2 3 2 0 1 1 1 1 2 2 2 1 3 3 3 4 4 4 5 5 5 5 6 6 6 6 6 6 6
2 2 1 2 1 1 1 1 1 1 2 2 1 0 1 1 2 2 2 2 1 2 2 3 3 3 4 4 4 4 4 5 5 6 6 6 6 6
2 1 1 2 2 1 2 2 2 2 2 2 1 0 1 1 1 1 2 2 2 2 2 2 2 3 3 3 3 3 2 3 4 4 5 5 5 6
1 1 1 1 2 2 2 2 3 2 2 2 1 0 0 1 1 1 1 1 1 1 1 2 2 2 3 3 3 3 2 2 3 4 4 4 5 6
2 1 0 1 1 2 3 4 5 4 3 2 1 1 2 1 0 0 0 1 2 1 1 2 1 2 2 2 3 3 2 3 3 3 4 5 5 6
2 1 1 1 1 2 2 2 2 3 5 4 3 3 2 2 2 1 1 1 2 1 0 2 1 2 3 3 4 4 3 3 3 4 4 5 5 6
2 2 2 1 1 3 2 2 1 1 1 2 2 3 2 2 3 2 2 1 1 1 0 2 2 2 3 2 4 4 4 4 4 4 5 5 5 5
1 1 2 2 2 4 3 2 1 1 1 1 1 0 0 1 3 2 1 1 2 2 0 1 2 2 2 2 3 4 4 4 4 4 5 5 5 4
1 1 2 2 2 4 3 3 2 1 0 1 1 2 2 1 2 2 2 1 1 2 1 1 1 1 2 2 2 2 3 4 5 5 5 5 5 2
1 1 1 2 2 3 3 3 2 1 1 1 1 1 1 1 1 0 1 1 2 3 2 1 1 1 2 3 3 2 2 2 2 3 4 6 5 3
2 2 1 2 2 3 2 1 1 2 1 1 0 1 1 1 1 1 1 1 2 3 2 2 2 2 1 2 3 3 2 2 2 2 3 5 5 5
2 3 2 2 1 1 0 1 2 2 1 0 1 2 1 1 0 1 1 1 1 2 1 2 2 2 2 2 3 3 3 3 2 2 3 3 3 3
1 1 2 2 1 1 1 1 1 1 1 1 1 1 1 0 0 0 0 1 1 2 2 2 2 2 2 3 3 3 2 3 2 3 3 3 3 3
3 2 2 1 1 0 0 0 0 0 0 0 1 1 1 1 1 1 0 1 1 2 2 2 1 1 2 3 3 3 3 3 3 2 2 3 4 4
4 2 2 2 2 2 1 1 1 1 2 2 2 2 2 2 2 1 1 1 2 2 2 2 2 2 2 2 4 4 3 3 3 3 2 3 5 4
3 2 2 2 3 2 2 2 2 2 2 2 3 2 2 2 2 2 2 2 3 3 3 2 1 1 3 5 3 3 3 3 2 3 3 3 5 5
2 2 3 3 3 3 3 3 3 2 2 2 3 3 3 3 3 3 3 3 3 3 3 2 2 3 4 4 4 4 4 4 3 4 3 3 5 6
3 3 3 3 3 3 3 3 3 3 3 3 3 3 3 3 3 4 4 5 4 3 4 4 4 4 2 1 3 4 3 5 5 4 3 3 4 4
3 4 3 4 3 3 3 3 3 3 3 3 4 4 3 4 4 5 4 4 4 4 4 3 2 1 1 3 5 5 4 4 4 6 6 5 3 4
4 4 4 4 4 3 3 4 4 4 4 4 4 4 4 4 4 4 4 4 3 3 3 2 2 2 3 3 4 4 5 5 3 3 4 7 9 10
Wind_Direction
103 103 91 79 92 111 124 136 137 128 314 317 336 346 359 17 23 34 26 39 50 51 51 49 45 43 39 39 41 39 38 35 31 27 25 25 23 22
93 92 80 78 78 83 108 106 116 137 153 275 278 322 360 31 41 38 36 43 47 50 50 49 46 45 42 38 35 34 32 31 29 25 21 21 20 17
84 98 89 95 90 82 90 99 102 117 133 284 329 352 24 24 10 22 33 29 28 45 41 44 44 43 40 34 32 30 27 24 23 20 17 15 14 11
115 100 84 100 96 98 107 112 123 132 138 148 340 2 5 352 7 24 25 36 26 42 35 36 35 34 32 28 28 26 23 23 20 16 14 10 9 9
134 134 136 118 105 111 125 127 130 116 120 134 138 4 355 4 20 20 17 3 1 31 27 27 25 21 20 18 16 17 23 26 23 19 12 5 4 4
121 138 154 152 149 147 130 131 125 111 112 119 123 35 345 341 24 14 354 350 342 360 2 356 5 7 3 357 353 0 14 21 15 4 4 359 356 354
95 106 148 154 159 157 141 143 134 122 119 123 130 87 326 334 300 286 290 328 320 342 340 331 344 344 338 331 328 327 337 346 352 352 347 346 345 341
142 130 103 105 131 134 142 145 144 141 150 144 159 195 246 244 242 229 241 350 307 321 343 310 351 307 300 294 311 316 310 318 331 337 338 339 340 343
159 150 131 94 96 108 106 112 149 161 158 155 169 209 218 215 185 211 230 235 245 269 33 294 316 300 297 305 316 320 320 319 320 326 331 339 343 339
169 173 166 177 146 136 116 95 69 28 195 174 192 221 228 203 188 197 206 255 280 301 120 271 295 293 307 304 311 313 317 316 321 326 327 332 337 338
168 162 175 190 187 143 127 124 62 347 4 84 136 233 240 164 143 112 99 54 299 290 188 244 287 302 298 294 308 313 314 315 312 316 322 323 323 327
167 202 203 195 188 158 150 152 186 255 326 31 32 21 25 78 141 161 173 181 258 276 254 223 275 320 304 298 317 318 315 316 316 313 316 321 317 310
182 217 228 200 189 178 165 175 204 180 159 134 79 17 12 11 342 294 195 185 208 246 231 178 228 249 256 294 305 302 307 312 314 310 313 316 318 310
195 209 207 200 191 183 174 200 174 122 115 108 73 322 309 298 299 296 265 258 249 244 230 183 208 216 234 275 284 300 304 300 300 302 307 313 315 314
188 185 190 196 180 172 167 131 118 115 123 141 255 271 275 273 306 357 351 349 336 318 301 233 222 225 222 243 266 281 297 299 292 302 307 303 300 304
163 142 123 110 102 87 77 79 107 152 161 209 260 281 316 312 273 278 288 320 325 313 318 293 243 216 238 257 255 266 265 280 299 297 299 297 294 284
138 106 97 97 93 65 38 81 139 143 208 245 245 272 279 283 287 293 271 297 273 284 309 325 326 275 244 241 259 261 263 273 276 287 298 297 291 289
132 142 167 178 198 211 217 239 233 226 225 220 226 234 243 253 270 285 273 252 270 279 288 299 326 336 321 282 229 243 255 266 276 277 267 277 288 290
139 172 191 204 213 217 220 225 236 236 223 217 227 235 241 251 261 263 258 270 276 276 279 274 277 287 297 296 282 230 240 264 271 272 264 260 273 286
181 199 214 219 221 224 227 232 241 241 231 235 241 242 238 242 252 252 246 253 263 272 279 271 250 246 254 270 280 283 252 244 253 266 271 273 272 281
215 220 222 224 229 231 234 233 234 238 241 241 243 243 240 240 248 250 250 257 263 262 261 263 261 259 274 298 286 285 274 255 249 254 265 278 287 289
218 221 228 230 230 232 235 236 240 243 244 242 244 244 241 239 245 247 245 248 252 254 264 275 281 267 246 255 272 283 290 296 286 277 266 254 259 273
225 225 226 228 230 234 235 236 237 241 239 241 243 244 243 245 246 243 244 245 250 255 266 274 281 272 265 261 272 282 287 295 298 300 290 287 281 280